Location: Emporia
(38.4040°N, 96.1810°W)
Time: 01:27:03
(UTC-05:00)

Amateur Radio Satellites - All Passes

Search period start: 27 May 2016 00:57
Search period end: 28 May 2016 00:57
Location: Emporia, 38.4040°N, 96.1810°W

Satellite Date Start Highest point End Downlink Frequencies (MHz)
Time Altitude Azimuth
ESTCUBE 1 27 May 00:57:38 01:01:17 24° 265° (W) 01:04:58 437.505/2401.250
NANOSAT C BR1 27 May 00:59:33 01:03:46 86° 105° (ESE) 01:07:57 145.865
PHONESAT 2.4 27 May 01:09:17 01:12:23 57° 356° (N) 01:15:28 2401.200-2431.200
CUBEBUG 1 27 May 01:19:05 01:22:21 20° 266° (W) 01:25:38 437.445
DX 1 27 May 01:21:08 01:24:33 22° 265° (W) 01:27:59 434.975-435.025
VELOX 1 27 May 01:23:58 01:27:04 18° 266° (W) 01:30:12 145.980
50 SAT 27 May 01:27:53 01:28:19 10° 268° (W) 01:28:46 437.505
JAS-2 27 May 01:28:26 01:34:57 33° 93° (E) 01:40:49 435.910
BEESAT 27 May 01:30:12 01:31:39 11° 61° (ENE) 01:33:07 436.000
DANDE 27 May 01:36:34 01:43:34 31° 275° (W) 01:50:01 436.750
DUCHIFAT 1 27 May 01:38:56 01:42:43 34° 288° (WNW) 01:46:29 145.980
Oscar 19 27 May 01:44:42 01:47:50 16° 92° (E) 01:50:58 437.125/150
SPROUT 27 May 01:49:44 01:53:09 23° 265° (W) 01:56:34 437.525
SO-50 27 May 01:58:31 02:03:14 46° 306° (NW) 02:07:58 436.795
BUGSAT 1 27 May 02:00:34 02:04:22 41° 288° (WNW) 02:08:08 437.445
TISAT 1 27 May 02:16:10 02:20:09 40° 261° (W) 02:24:08 437.305
POPSAT HIP 1 27 May 02:17:43 02:19:37 13° 295° (WNW) 02:21:30 437.405
YUBILEINY 27 May 02:18:03 02:21:47 13° 60° (ENE) 02:25:31 435.215
RS-15 27 May 02:18:12 02:29:58 48° 47° (NE) 02:41:42 29.354- 29.394
QB50P1 27 May 02:18:18 02:20:05 13° 296° (WNW) 02:21:52 145.935-145.965
QB50P2 27 May 02:20:44 02:22:03 11° 296° (WNW) 02:23:23 145.880/145.840
POLYITAN 1 27 May 02:23:18 02:24:29 11° 296° (WNW) 02:25:39 437.675
SWISSCUBE 27 May 02:34:18 02:38:57 58° 73° (ENE) 02:43:38 437.505
ITUPSAT 1 27 May 02:40:00 02:44:40 59° 73° (ENE) 02:49:22 437.325
PHONESAT 2.4 27 May 02:46:09 02:49:17 77° 14° (NNE) 02:52:24 2401.200-2431.200
ISS 27 May 02:56:47 02:57:33 11° 14° (NNE) 02:58:19 145.825
BEESAT 27 May 03:04:01 03:08:46 76° 258° (WSW) 03:13:33 436.000
Cosmos 2491 27 May 03:12:40 03:16:59 15° 76° (ENE) 03:21:15 435.465 / 435.565
JAS-2 27 May 03:13:03 03:20:04 45° 293° (WNW) 03:26:24 435.910
Oscar 19 27 May 03:22:26 03:27:28 55° 288° (WNW) 03:32:28 437.125/150
Gurwin Techsat 1B 27 May 03:38:48 03:44:09 87° 100° (E) 03:49:28 435.225
Cosmos 2504 27 May 03:47:52 03:52:03 14° 63° (ENE) 03:56:17 435.465 / 435.565
ITAMSAT 1 27 May 04:02:10 04:07:19 55° 101° (E) 04:12:25 435.822/435.867
YUBILEINY 27 May 04:11:28 04:20:15 73° 81° (E) 04:29:01 435.215
KKS-1 27 May 04:11:41 04:16:08 68° 74° (ENE) 04:20:35 437.445
SWISSCUBE 27 May 04:14:51 04:17:06 13° 269° (W) 04:19:20 437.505
ITUPSAT 1 27 May 04:20:39 04:22:51 13° 269° (W) 04:25:04 437.325
MOZHAYETS 4 27 May 04:21:48 04:26:16 61° 75° (ENE) 04:30:47
PHONESAT 2.4 27 May 04:23:08 04:25:52 27° 208° (SSW) 04:28:35 2401.200-2431.200
RS-15 27 May 04:30:55 04:42:44 56° 249° (WSW) 04:54:28 29.354- 29.394
ISS 27 May 04:31:42 04:34:45 35° 33° (NNE) 04:37:47 145.825
AO-7 27 May 04:38:56 04:46:51 44° 100° (E) 04:54:43 29.400- 29.500
STARS 27 May 04:49:20 04:53:46 90° 61° (ENE) 04:58:12 437.465
Cosmos 2491 27 May 05:03:31 05:12:21 84° 96° (E) 05:21:13 435.465 / 435.565
Gurwin Techsat 1B 27 May 05:21:27 05:23:19 12° 300° (WNW) 05:25:11 435.225
HORYU 2 27 May 05:31:19 05:35:03 26° 96° (E) 05:38:45 437.375
Cosmos 2504 27 May 05:38:17 05:46:45 76° 82° (E) 05:55:37 435.465 / 435.565
ITAMSAT 1 27 May 05:42:53 05:46:19 18° 297° (WNW) 05:49:44 435.822/435.867
AO-85 27 May 05:45:09 05:49:01 20° 109° (ESE) 05:52:53 145.980
CUBESAT XI-V 27 May 05:45:12 05:49:43 52° 73° (ENE) 05:54:17 437.345
MOZHAYETS 4 27 May 06:02:19 06:03:49 11° 270° (W) 06:05:19
ISS 27 May 06:08:29 06:11:03 21° 228° (SW) 06:13:36 145.825
YUBILEINY 27 May 06:09:55 06:16:05 22° 280° (W) 06:22:18 435.215
NOAA 18 27 May 06:20:38 06:23:22 14° 91° (E) 06:26:06 137.9125
NOAA 15 27 May 06:24:10 06:27:46 18° 93° (E) 06:31:20 137.62
Cubesat XI-IV 27 May 06:27:39 06:30:03 13° 91° (E) 06:32:27 437.490
AO-7 27 May 06:31:52 06:39:29 41° 298° (WNW) 06:47:05 29.400- 29.500
STRAND 1 27 May 06:49:34 06:53:23 22° 65° (ENE) 06:57:13 437.568
LilacSat-2 27 May 06:59:01 07:01:56 21° 95° (E) 07:04:50 437.200
Cosmos 2491 27 May 07:04:16 07:10:16 20° 295° (WNW) 07:16:17 435.465 / 435.565
HORYU 2 27 May 07:07:49 07:11:31 26° 291° (WNW) 07:15:12 437.375
BRITE-PL 27 May 07:09:37 07:14:24 40° 97° (E) 07:18:47 437.365/2234.400
CUTE-I 27 May 07:12:04 07:17:00 36° 98° (E) 07:21:55 437.470
AO-85 27 May 07:23:46 07:29:08 57° 304° (NW) 07:34:25 145.980
CUBESAT XI-V 27 May 07:24:53 07:27:23 14° 269° (W) 07:29:54 437.345
JUGNU 27 May 07:28:54 07:30:00 10° 172° (S) 07:31:07 437.505
Cosmos 2504 27 May 07:33:20 07:39:17 22° 279° (W) 07:45:24 435.465 / 435.565
GOMX 1 27 May 07:37:29 07:41:42 33° 96° (E) 07:45:39 467.674
PRISM 27 May 07:43:05 07:43:32 10° 63° (ENE) 07:44:00 437.425
NOAA 18 27 May 07:59:02 08:04:30 70° 287° (WNW) 08:09:56 137.9125
NOAA 15 27 May 08:02:41 08:07:48 51° 289° (WNW) 08:12:54 137.62
Cubesat XI-IV 27 May 08:05:15 08:10:36 71° 285° (WNW) 08:15:56 437.490
GONETS M04 27 May 08:07:21 08:12:12 16° 62° (ENE) 08:17:01
Cosmos 2499 27 May 08:25:14 08:28:01 12° 60° (ENE) 08:30:49 435.465 / 435.565
AIST 1 27 May 08:27:21 08:30:53 23° 75° (ENE) 08:34:22
STRAND 1 27 May 08:27:27 08:32:16 42° 261° (W) 08:37:06 437.568
DOVE 4 27 May 08:28:52 08:33:10 55° 100° (E) 08:37:15 437.250
HO-68 27 May 08:31:07 08:36:48 25° 94° (E) 08:42:27 435.675
LilacSat-2 27 May 08:33:09 08:36:10 23° 290° (WNW) 08:39:10 437.200
BRITE-PL 27 May 08:48:44 08:52:31 21° 295° (WNW) 08:56:06 437.365/2234.400
SO-50 27 May 08:52:20 08:55:00 15° 42° (NE) 08:57:39 436.795
CUTE-I 27 May 08:52:26 08:56:51 27° 293° (WNW) 09:01:17 437.470
CINEMA 3 27 May 09:03:17 09:07:08 36° 98° (E) 09:10:57 145.822/145.860
AO-85 27 May 09:09:16 09:10:43 11° 323° (NW) 09:12:10 145.980
CANX-2 27 May 09:09:45 09:13:55 49° 99° (E) 09:18:05 2200.000
O/OREOS (USA 219) 27 May 09:11:08 09:13:31 14° 99° (E) 09:15:54 437.305
SEEDS 27 May 09:13:41 09:17:32 33° 97° (E) 09:21:24 437.485
PRISM 27 May 09:14:09 09:18:15 66° 258° (WSW) 09:22:25 437.425
JUGNU 27 May 09:15:51 09:18:07 12° 182° (S) 09:20:23 437.505
GOMX 1 27 May 09:16:02 09:19:32 21° 294° (WNW) 09:22:53 467.674
CUTE 1.7 + AOD 2 27 May 09:37:01 09:41:19 90° 265° (W) 09:45:37 437.475
Oscar 11 27 May 09:40:26 09:42:56 15° 92° (E) 09:45:24 145.826/435.025
AUBIESAT-1 27 May 09:40:33 09:43:52 88° 291° (WNW) 09:47:11 437.475
M-CUBED/EXP-1 PRIME 27 May 09:46:56 09:50:08 53° 290° (WNW) 09:53:20 437.505
ZACube-1 27 May 09:53:14 09:56:08 18° 94° (E) 09:59:04 437.345
CUBEBUG 2 27 May 09:55:49 09:59:47 43° 99° (E) 10:03:49 437.445
COMPASS 1 27 May 10:00:24 10:04:38 85° 101° (ESE) 10:08:52 437.405
GONETS M04 27 May 10:01:39 10:10:24 84° 83° (E) 10:19:06
AAUSAT CUBESAT 2 27 May 10:03:24 10:07:36 73° 101° (E) 10:11:47 437.432
AIST 1 27 May 10:04:50 10:08:24 25° 271° (W) 10:11:55
UNISAT 6 27 May 10:06:40 10:09:57 21° 68° (ENE) 10:13:12 437.425
DOVE 4 27 May 10:08:34 10:10:19 12° 297° (WNW) 10:12:02 437.250
TIGRISAT 27 May 10:14:07 10:17:37 24° 69° (ENE) 10:21:04 435.000
Cosmos 2499 27 May 10:14:15 10:22:50 65° 80° (E) 10:31:37 435.465 / 435.565
HO-68 27 May 10:17:51 10:24:51 58° 291° (WNW) 10:31:51 435.675
UWE-3 27 May 10:25:13 10:29:22 67° 101° (E) 10:33:36 435.000/436.395/437.385
PCSat 27 May 10:29:27 10:34:51 76° 115° (ESE) 10:40:17 145.827
FUNcube-1 27 May 10:30:39 10:34:41 46° 99° (E) 10:38:47 145.935
SO-50 27 May 10:31:24 10:36:04 76° 242° (WSW) 10:40:35 436.795
DELFI C3 27 May 10:37:25 10:40:59 29° 97° (E) 10:44:32 145.870
CINEMA 3 27 May 10:41:21 10:44:00 17° 293° (WNW) 10:46:37 145.822/145.860
ANTELSAT 27 May 10:46:43 10:51:01 59° 75° (ENE) 10:55:15 437.575/2403.000
CANX-2 27 May 10:47:08 10:49:21 14° 294° (WNW) 10:51:33 2200.000
O/OREOS (USA 219) 27 May 10:48:01 10:52:27 50° 294° (WNW) 10:56:53 437.305
SEEDS 27 May 10:49:58 10:52:59 19° 292° (WNW) 10:56:01 437.485
DUCHIFAT 1 27 May 10:56:14 10:57:38 11° 64° (ENE) 10:59:02 145.980
BEESAT 3 27 May 11:05:14 11:06:33 11° 108° (ESE) 11:07:54 437.485
SRMSAT 27 May 11:08:28 11:10:43 12° 180° (S) 11:12:57 437.500
Oscar 11 27 May 11:15:07 11:19:15 43° 287° (WNW) 11:23:21 145.826/435.025
CUSAT 1 27 May 11:27:17 11:32:06 24° 82° (E) 11:37:40 437.405
ZACube-1 27 May 11:28:44 11:32:30 33° 288° (WNW) 11:36:19 437.345
POPSAT HIP 1 27 May 11:31:17 11:35:02 31° 71° (ENE) 11:38:46 437.405
QB50P1 27 May 11:31:41 11:35:27 32° 71° (ENE) 11:39:14 145.935-145.965
QB50P2 27 May 11:33:44 11:37:37 36° 71° (ENE) 11:41:30 145.880/145.840
CUBEBUG 2 27 May 11:33:48 11:36:04 14° 294° (WNW) 11:38:20 437.445
POLYITAN 1 27 May 11:36:10 11:40:04 36° 72° (ENE) 11:43:57 437.675
HUMSAT D 27 May 11:39:50 11:44:00 74° 102° (ESE) 11:48:12 437.325/437.525
JAS-2 27 May 11:40:23 11:44:23 15° 55° (NE) 11:48:28 435.910
UNISAT 6 27 May 11:42:35 11:46:29 31° 263° (W) 11:50:20 437.425
NANOSAT C BR1 27 May 11:49:57 11:54:02 50° 74° (ENE) 11:58:08 145.865
TIGRISAT 27 May 11:50:27 11:54:11 27° 263° (W) 11:57:52 435.000
GONETS M04 27 May 12:00:45 12:06:02 18° 281° (WNW) 12:11:18
BEESAT 2 27 May 12:04:51 12:08:23 31° 114° (ESE) 12:11:57 435.950
FUNcube-1 27 May 12:08:22 12:10:33 14° 294° (WNW) 12:12:45 145.935
Cosmos 2499 27 May 12:08:30 12:15:16 27° 277° (W) 12:22:12 435.465 / 435.565
HO-68 27 May 12:10:29 12:11:04 10° 310° (NW) 12:11:39 435.675
DELFI C3 27 May 12:12:44 12:15:38 19° 292° (WNW) 12:18:31 145.870
AISAT 27 May 12:14:29 12:17:49 21° 95° (E) 12:21:06 437.250
PCSat 27 May 12:15:23 12:18:51 17° 314° (NW) 12:22:20 145.827
UKube-1 27 May 12:24:41 12:27:28 17° 94° (E) 12:30:13 .
ANTELSAT 27 May 12:26:59 12:28:03 11° 269° (W) 12:29:07 437.575/2403.000
DUCHIFAT 1 27 May 12:28:39 12:32:49 59° 260° (W) 12:36:58 145.980
BEESAT 3 27 May 12:39:55 12:43:46 53° 304° (WNW) 12:47:39 437.485
BUGSAT 1 27 May 12:48:02 12:52:15 77° 258° (WSW) 12:56:27 437.445
ESTCUBE 1 27 May 12:50:28 12:55:03 79° 103° (ESE) 12:59:35 437.505/2401.250
50 SAT 27 May 12:55:01 12:58:45 71° 100° (E) 13:02:28 437.505
DANDE 27 May 12:59:11 13:04:19 59° 93° (E) 13:11:07 436.750
Oscar 19 27 May 12:59:53 13:03:46 22° 65° (ENE) 13:07:40 437.125/150
CUSAT 1 27 May 13:07:20 13:13:25 58° 284° (WNW) 13:20:56 437.405
POPSAT HIP 1 27 May 13:07:44 13:10:50 20° 266° (W) 13:13:57 437.405
CUBEBUG 1 27 May 13:07:46 13:12:10 84° 103° (ESE) 13:16:30 437.445
QB50P1 27 May 13:08:13 13:11:16 19° 266° (W) 13:14:20 145.935-145.965
DX 1 27 May 13:09:35 13:13:57 69° 102° (ESE) 13:18:15 434.975-435.025
QB50P2 27 May 13:10:42 13:13:31 17° 267° (W) 13:16:20 145.880/145.840
POLYITAN 1 27 May 13:13:14 13:15:59 17° 266° (W) 13:18:44 437.675
VELOX 1 27 May 13:13:55 13:18:21 87° 284° (WNW) 13:22:45 145.980
JAS-2 27 May 13:20:44 13:27:59 75° 73° (ENE) 13:35:48 435.910
Gurwin Techsat 1B 27 May 13:21:30 13:24:22 15° 62° (ENE) 13:27:13 435.225
NANOSAT C BR1 27 May 13:28:19 13:30:02 12° 268° (W) 13:31:46 145.865
SPROUT 27 May 13:36:06 13:40:21 66° 102° (ESE) 13:44:32 437.525
BEESAT 2 27 May 13:43:10 13:46:16 22° 311° (NW) 13:49:24 435.950
AISAT 27 May 13:50:23 13:54:19 32° 290° (WNW) 13:58:14 437.250
AO-7 27 May 13:51:28 13:53:13 11° 45° (NE) 13:54:58 29.400- 29.500
UKube-1 27 May 13:59:37 14:03:39 38° 288° (WNW) 14:07:38 .
TISAT 1 27 May 14:01:33 14:05:19 32° 98° (E) 14:09:01 437.305
AIST 2 27 May 14:11:40 14:15:37 46° 116° (ESE) 14:19:35 435.215
AO-85 27 May 14:19:07 14:21:03 12° 38° (NE) 14:22:57 145.980
ESTCUBE 1 27 May 14:30:46 14:31:09 10° 298° (WNW) 14:31:33 437.505/2401.250
SWISSCUBE 27 May 14:37:07 14:40:11 17° 93° (E) 14:43:14 437.505
Oscar 19 27 May 14:37:50 14:42:46 44° 261° (W) 14:47:44 437.125/150
ITUPSAT 1 27 May 14:43:06 14:46:14 17° 93° (E) 14:49:20 437.325
DANDE 27 May 14:43:49 14:47:59 20° 298° (WNW) 14:52:57 436.750
DX 1 27 May 14:48:37 14:49:31 11° 298° (WNW) 14:50:24 434.975-435.025
Gurwin Techsat 1B 27 May 14:58:24 15:03:41 70° 258° (WSW) 15:09:00 435.225
BEESAT 27 May 15:05:57 15:10:09 30° 97° (E) 15:14:21 436.000
JAS-2 27 May 15:08:31 15:13:41 21° 272° (W) 15:19:09 435.910
SPROUT 27 May 15:14:55 15:15:42 10° 297° (WNW) 15:16:29 437.525
Cosmos 2491 27 May 15:16:16 15:24:19 39° 74° (ENE) 15:32:15 435.465 / 435.565
ITAMSAT 1 27 May 15:18:36 15:23:44 73° 74° (ENE) 15:28:54 435.822/435.867
YUBILEINY 27 May 15:18:54 15:23:19 15° 77° (ENE) 15:27:44 435.215
AO-7 27 May 15:36:08 15:44:05 53° 65° (ENE) 15:52:04 29.400- 29.500
TISAT 1 27 May 15:37:45 15:40:44 19° 293° (WNW) 15:43:41 437.305
AIST 2 27 May 15:51:33 15:54:20 17° 313° (NW) 15:57:08 435.215
AO-85 27 May 15:57:43 16:02:22 87° 65° (ENE) 16:06:34 145.980
KKS-1 27 May 16:05:41 16:08:05 14° 92° (E) 16:10:27 437.445
SWISSCUBE 27 May 16:13:36 16:18:12 47° 288° (WNW) 16:22:47 437.505
MOZHAYETS 4 27 May 16:19:25 16:22:21 16° 93° (E) 16:25:14
ITUPSAT 1 27 May 16:19:40 16:24:16 46° 288° (WNW) 16:28:51 437.325
HORYU 2 27 May 16:28:21 16:31:39 21° 67° (ENE) 16:34:57 437.375
STARS 27 May 16:41:18 16:44:15 18° 94° (E) 16:47:12 437.465
RS-15 27 May 16:41:49 16:50:54 30° 102° (ESE) 17:00:20 29.354- 29.394
BEESAT 27 May 16:43:50 16:47:49 26° 292° (WNW) 16:51:46 436.000
ITAMSAT 1 27 May 17:01:46 17:03:42 12° 270° (W) 17:05:38 435.822/435.867
YUBILEINY 27 May 17:10:02 17:18:44 87° 96° (E) 17:27:28 435.215
Cosmos 2491 27 May 17:13:04 17:21:08 44° 272° (W) 17:29:10 435.465 / 435.565
AO-7 27 May 17:29:52 17:37:04 33° 263° (W) 17:44:20 29.400- 29.500
KKS-1 27 May 17:40:38 17:44:53 47° 287° (WNW) 17:49:07 437.445
NOAA 15 27 May 17:42:31 17:46:52 26° 66° (ENE) 17:51:15 137.62
CUBESAT XI-V 27 May 17:44:40 17:47:20 15° 91° (E) 17:49:59 437.345
NOAA 18 27 May 17:44:48 17:49:08 25° 65° (ENE) 17:53:27 137.9125
Cubesat XI-IV 27 May 17:47:43 17:51:29 20° 64° (ENE) 17:55:16 437.490
MOZHAYETS 4 27 May 17:55:17 17:59:42 45° 287° (WNW) 18:04:06
HORYU 2 27 May 18:04:00 18:07:59 33° 262° (W) 18:11:59 437.375
Cosmos 2504 27 May 18:15:17 18:22:20 64° 92° (E) 18:29:47 435.465 / 435.565
STARS 27 May 18:16:42 18:20:43 37° 289° (WNW) 18:24:43 437.465
BRITE-PL 27 May 18:17:27 18:22:44 43° 71° (ENE) 18:28:05 437.365/2234.400
CUTE-I 27 May 18:32:22 18:37:29 52° 72° (ENE) 18:42:38 437.470
GOMX 1 27 May 18:42:49 18:47:46 36° 71° (ENE) 18:52:40 467.674
RS-15 27 May 18:50:50 19:02:09 73° 304° (NW) 19:14:10 29.354- 29.394
M-CUBED/EXP-1 PRIME 27 May 19:00:07 19:01:27 11° 61° (ENE) 19:02:45 437.505
HO-68 27 May 19:00:09 19:04:23 17° 56° (NE) 19:08:38 435.675
YUBILEINY 27 May 19:11:05 19:16:40 18° 296° (WNW) 19:22:18 435.215
LilacSat-2 27 May 19:12:44 19:16:29 58° 260° (W) 19:20:14 437.200
PCSat 27 May 19:18:57 19:24:08 44° 57° (ENE) 19:29:17 145.827
CUBESAT XI-V 27 May 19:20:25 19:24:59 51° 287° (WNW) 19:29:31 437.345
O/OREOS (USA 219) 27 May 19:20:50 19:24:21 22° 59° (ENE) 19:27:50 437.305
NOAA 15 27 May 19:21:34 19:26:27 37° 262° (W) 19:31:22 137.62
NOAA 18 27 May 19:24:22 19:29:30 42° 261° (W) 19:34:41 137.9125
Cubesat XI-IV 27 May 19:26:01 19:31:10 50° 260° (W) 19:36:19 437.490
DOVE 4 27 May 19:31:39 19:36:43 51° 73° (ENE) 19:41:37 437.250
BRITE-PL 27 May 19:56:42 20:01:17 25° 267° (W) 20:05:56 437.365/2234.400
CANX-2 27 May 20:01:17 20:04:54 28° 70° (ENE) 20:08:31 2200.000
CINEMA 3 27 May 20:03:07 20:07:17 31° 71° (ENE) 20:11:18 145.822/145.860
SEEDS 27 May 20:04:37 20:07:36 20° 68° (ENE) 20:10:38 437.485
Cosmos 2504 27 May 20:11:03 20:16:22 21° 293° (WNW) 20:21:55 435.465 / 435.565
CUTE-I 27 May 20:14:15 20:17:48 18° 267° (W) 20:21:22 437.470
GOMX 1 27 May 20:21:08 20:25:49 28° 265° (W) 20:30:27 467.674
AUBIESAT-1 27 May 20:24:41 20:28:53 90° 28° (NNE) 20:32:46 437.475
BEESAT 2 27 May 20:24:58 20:27:15 15° 46° (NE) 20:29:31 435.950
CUTE 1.7 + AOD 2 27 May 20:28:00 20:32:03 50° 74° (ENE) 20:36:09 437.475
M-CUBED/EXP-1 PRIME 27 May 20:31:25 20:35:38 60° 254° (WSW) 20:39:32 437.505
Oscar 11 27 May 20:36:18 20:36:35 10° 63° (ENE) 20:36:53 145.826/435.025
STRAND 1 27 May 20:39:00 20:44:10 74° 103° (ESE) 20:49:18 437.568
HO-68 27 May 20:43:59 20:51:08 90° 249° (WSW) 20:58:20 435.675
ZACube-1 27 May 20:49:04 20:50:50 12° 65° (ENE) 20:52:37 437.345
COMPASS 1 27 May 20:49:31 20:53:27 44° 73° (ENE) 20:57:26 437.405
AAUSAT CUBESAT 2 27 May 20:52:08 20:55:56 37° 73° (ENE) 20:59:47 437.432
CUBEBUG 2 27 May 20:52:32 20:56:24 31° 71° (ENE) 21:00:10 437.445
AIST 1 27 May 20:56:04 20:58:40 15° 86° (E) 21:01:14
PRISM 27 May 20:58:07 21:01:02 18° 94° (E) 21:03:56 437.425
BEESAT 3 27 May 20:58:29 21:02:21 50° 56° (NE) 21:06:11 437.485
O/OREOS (USA 219) 27 May 20:59:47 21:03:47 32° 256° (WSW) 21:07:45 437.305
PCSat 27 May 21:02:58 21:07:14 24° 253° (WSW) 21:11:29 145.827
GONETS M04 27 May 21:07:45 21:13:19 19° 79° (E) 21:18:51
RS-15 27 May 21:07:57 21:17:12 26° 332° (NNW) 21:26:51 29.354- 29.394
ISS 27 May 21:10:33 21:13:10 23° 132° (SE) 21:15:48 145.825
DOVE 4 27 May 21:11:04 21:14:35 18° 267° (W) 21:18:02 437.250
UWE-3 27 May 21:20:40 21:24:45 43° 73° (ENE) 21:28:46 435.000/436.395/437.385
DELFI C3 27 May 21:23:08 21:25:24 15° 67° (ENE) 21:27:40 145.870
FUNcube-1 27 May 21:24:57 21:28:38 29° 71° (ENE) 21:32:15 145.935
CANX-2 27 May 21:37:31 21:40:44 21° 266° (W) 21:43:59 2200.000
SEEDS 27 May 21:39:23 21:43:06 31° 263° (W) 21:46:50 437.485
CINEMA 3 27 May 21:40:31 21:44:23 24° 264° (W) 21:48:08 145.822/145.860
BEESAT 2 27 May 22:01:31 22:05:26 54° 242° (WSW) 22:09:17 435.950
DANDE 27 May 22:01:44 22:02:31 10° 55° (NE) 22:03:18 436.750
CUSAT 1 27 May 22:03:54 22:08:58 19° 61° (ENE) 22:13:33 437.405
CUTE 1.7 + AOD 2 27 May 22:06:35 22:08:11 12° 269° (W) 22:09:47 437.475
Oscar 11 27 May 22:07:50 22:12:06 70° 258° (WSW) 22:16:24 145.826/435.025
STRAND 1 27 May 22:20:16 22:22:40 13° 299° (WNW) 22:25:05 437.568
ZACube-1 27 May 22:22:33 22:26:42 52° 260° (W) 22:30:48 437.345
COMPASS 1 27 May 22:27:17 22:29:15 13° 269° (W) 22:31:13 437.405
AAUSAT CUBESAT 2 27 May 22:29:06 22:31:34 15° 267° (W) 22:34:02 437.432
HUMSAT D 27 May 22:29:41 22:33:29 39° 73° (ENE) 22:37:18 437.325/437.525
CUBEBUG 2 27 May 22:29:43 22:33:01 21° 265° (W) 22:36:17 437.445
PHONESAT 2.4 27 May 22:30:40 22:33:34 35° 154° (SSE) 22:36:28 2401.200-2431.200
AIST 1 27 May 22:31:44 22:35:51 40° 282° (WNW) 22:40:02
PRISM 27 May 22:32:40 22:36:24 32° 289° (WNW) 22:40:07 437.425
AIST 2 27 May 22:34:46 22:37:59 21° 49° (NE) 22:41:12 435.215
HO-68 27 May 22:36:11 22:39:40 14° 270° (W) 22:43:11 435.675
BEESAT 3 27 May 22:38:02 22:39:35 12° 252° (WSW) 22:41:07 437.485
ANTELSAT 27 May 22:41:23 22:43:27 13° 92° (E) 22:45:31 437.575/2403.000
ISS 27 May 22:46:28 22:49:29 34° 328° (NNW) 22:52:31 145.825
Cosmos 2499 27 May 22:49:31 22:56:24 51° 90° (E) 23:03:45 435.465 / 435.565
DELFI C3 27 May 22:56:14 22:59:55 38° 262° (W) 23:03:39 145.870
UWE-3 27 May 22:59:05 23:01:24 14° 267° (W) 23:03:42 435.000/436.395/437.385
GONETS M04 27 May 23:00:10 23:08:59 82° 277° (W) 23:17:48
FUNcube-1 27 May 23:01:44 23:04:53 20° 265° (W) 23:08:01 145.935
AISAT 27 May 23:11:01 23:13:51 17° 66° (ENE) 23:16:41 437.250
UKube-1 27 May 23:18:56 23:20:49 13° 64° (ENE) 23:22:44 .
RS-15 27 May 23:28:03 23:35:54 19° 8° (N) 23:43:52 29.354- 29.394
50 SAT 27 May 23:32:16 23:35:14 24° 70° (ENE) 23:38:14 437.505
UNISAT 6 27 May 23:34:55 23:39:10 56° 101° (E) 23:43:28 437.425
DANDE 27 May 23:39:14 23:47:27 53° 75° (ENE) 23:54:46 436.750
TIGRISAT 27 May 23:42:23 23:46:40 64° 102° (ESE) 23:50:59 435.000
CUSAT 1 27 May 23:44:29 23:52:14 82° 263° (W) 23:58:30 437.405
ESTCUBE 1 27 May 23:48:14 23:52:39 59° 74° (ENE) 23:57:08 437.505/2401.250
CUBEBUG 1 28 May 00:01:50 00:06:11 56° 74° (ENE) 00:10:32 437.445
DX 1 28 May 00:03:22 00:07:35 48° 73° (ENE) 00:11:50 434.975-435.025
HUMSAT D 28 May 00:07:04 00:09:16 14° 267° (W) 00:11:30 437.325/437.525
PHONESAT 2.4 28 May 00:07:05 00:10:13 69° 350° (N) 00:13:20 2401.200-2431.200
VELOX 1 28 May 00:09:19 00:13:45 68° 75° (ENE) 00:18:12 145.980
AIST 2 28 May 00:12:46 00:16:34 35° 246° (WSW) 00:20:20 435.215
DUCHIFAT 1 28 May 00:14:48 00:18:08 23° 95° (E) 00:21:27 145.980
ANTELSAT 28 May 00:16:15 00:20:24 48° 287° (WNW) 00:24:36 437.575/2403.000
ISS 28 May 00:26:02 00:26:42 10° 347° (NNW) 00:27:22 145.825
SPROUT 28 May 00:28:04 00:32:05 40° 72° (ENE) 00:36:07 437.525
BUGSAT 1 28 May 00:32:39 00:35:08 16° 93° (E) 00:37:36 437.445
JAS-2 28 May 00:37:07 00:39:01 11° 83° (E) 00:40:52 435.910
SO-50 28 May 00:43:33 00:48:16 50° 116° (ESE) 00:53:02 436.795
Cosmos 2499 28 May 00:43:50 00:49:51 28° 290° (WNW) 00:56:16 435.465 / 435.565
AISAT 28 May 00:45:41 00:49:58 44° 261° (W) 00:54:15 437.250
